[[{"header":{"parameterUnit":"m.s-1","parameterCategory":1,"la1":30.2992,"la2":30.254,"lo1":-89.0895,"lo2":-89.0443,"dy":0.0025,"dx":0.0025,"nx":19,"ny":19,"refTime":"2026-03-22T03:00:00:Z","depth":0,"parameterNumber":2,"parameterNumberName":"U-component_of_WINDS"},"data":[0,0,0,3.7272,3.7277,3.7487,3.7487,3.7763,3.7765,0,0,0,0,0,0,0,0,0,0,0,3.7213,3.7214,3.7272,3.7277,3.7486,3.7487,3.7762,3.7765,0,0,0,0,0,0,0,0,0,0,0,3.7212,3.7214,3.7216,3.7278,3.7486,3.7487,3.7762,3.7601,0,0,0,0,0,0,0,0,0,0,3.7397,3.7344,3.7213,3.7216,3.7279,3.7486,3.7487,3.7594,3.7611,3.767,0,3.7722,0,3.7748,3.7784,3.7785,0,0,0,3.7276,3.7329,3.7383,3.7217,3.7281,3.7486,3.7392,3.7603,3.7624,3.7694,3.7726,3.7736,3.7753,3.7786,3.7787,3.8129,3.813,0,0,3.7264,3.7252,3.7369,3.7396,3.7362,3.7385,3.7398,3.7616,3.765,3.7727,3.7742,3.7757,3.7788,3.779,3.8127,3.8129,0,0,0,3.7232,3.7244,3.7293,3.7385,3.7422,3.7391,3.7406,3.764,3.7657,3.7745,3.776,3.7789,3.7793,3.8126,3.8128,3.8198,0,0,0,3.7225,3.7225,3.7288,3.7283,3.7418,3.7533,3.7426,3.7642,3.7667,3.7759,3.7789,3.7795,3.8124,3.8127,3.8192,3.8233,0,0,0,3.7198,3.7222,3.7253,3.7281,3.7371,3.753,3.7559,3.7648,3.7676,3.7785,3.7796,3.8122,3.8126,3.8187,3.8224,3.8319,0,0,0,3.7167,3.7313,3.7254,3.7424,3.7369,3.7571,3.7558,3.771,3.7812,3.7791,3.8124,3.8128,3.8185,3.8219,3.8313,3.8395,3.8428,0,0,3.7344,3.7334,3.7435,3.7388,3.7597,3.754,3.7761,3.7866,3.7889,3.8048,3.8057,3.8194,3.8224,3.8317,3.8621,3.8647,0,0,0,3.7487,3.7559,3.7617,3.7713,3.7796,3.7871,3.7944,3.7983,3.8119,3.7967,3.8254,3.8273,3.8328,3.8368,3.839,3.8439,3.8146,3.8145,3.8145,3.7721,3.7741,3.7909,3.7955,3.8048,3.8122,3.82,3.8265,3.8259,3.8326,3.8373,3.8555,3.8601,3.8618,3.8668,3.8419,3.8419,3.842,3.842,3.7983,3.8088,3.8076,3.8234,3.8256,3.839,3.8468,3.8459,3.8587,3.8521,3.8571,3.8495,3.8646,3.8691,3.8425,3.8424,3.8424,3.8423,3.8423,3.8137,3.8191,3.8236,3.8377,3.8484,3.8526,3.865,3.8666,3.8681,3.8731,3.8782,3.8781,3.8781,3.8754,3.8755,3.8755,3.8756,3.8756,3.8757,3.8279,3.8327,3.8429,3.8531,3.8595,3.8681,3.8758,3.8822,3.8897,3.8899,3.8899,3.8886,3.8657,3.8599,3.8767,3.8765,3.8764,3.8763,3.8762,3.8534,3.8479,3.8637,3.8701,3.8822,3.8928,3.8946,3.9076,3.9131,3.9192,3.9169,3.8998,3.8988,3.8971,3.8922,3.9164,3.9164,3.9164,3.9164,3.8664,3.8661,3.8825,3.8927,3.9029,3.9062,3.9241,3.9303,3.9359,3.9395,3.9363,3.93,3.9282,3.9283,3.9259,3.9214,3.9525,3.9525,3.9525,3.8822,3.883,3.8978,3.9031,3.9127,3.921,3.9379,3.9498,3.955,3.954,3.9423,3.9408,3.9308,3.9274,3.9259,3.9221,3.9139,0,0]},{"header":{"parameterUnit":"m.s-1","parameterCategory":1,"la1":30.2992,"la2":30.254,"lo1":-89.0895,"lo2":-89.0443,"dy":0.0025,"dx":0.0025,"nx":19,"ny":19,"refTime":"2026-03-22T03:00:00:Z","depth":0,"parameterNumber":3,"parameterNumberName":"V-component_of_WINDS"},"data":[0,0,0,3.206,3.2065,3.2352,3.2353,3.2705,3.2708,0,0,0,0,0,0,0,0,0,0,0,3.1966,3.1968,3.2059,3.2066,3.2351,3.2353,3.2705,3.2708,0,0,0,0,0,0,0,0,0,0,0,3.1965,3.1967,3.197,3.2067,3.2351,3.2353,3.2704,3.2493,0,0,0,0,0,0,0,0,0,0,3.2218,3.2123,3.1967,3.197,3.2069,3.2351,3.2353,3.2483,3.2506,3.257,0,3.2623,0,3.2671,3.2731,3.2732,0,0,0,3.2073,3.2103,3.2188,3.197,3.2071,3.235,3.2225,3.2496,3.2522,3.26,3.2628,3.2642,3.2677,3.2733,3.2735,3.3075,3.3076,0,0,3.2057,3.2013,3.217,3.2205,3.2159,3.2215,3.2233,3.2512,3.254,3.263,3.265,3.2683,3.2735,3.2738,3.3074,3.3075,0,0,0,3.2007,3.2002,3.208,3.219,3.2242,3.2223,3.2244,3.2528,3.2557,3.2654,3.2687,3.2737,3.2741,3.3073,3.3075,3.3094,0,0,0,3.1998,3.1973,3.2073,3.2049,3.2237,3.2389,3.2253,3.2538,3.2571,3.2685,3.2737,3.2745,3.3071,3.3074,3.3091,3.3112,0,0,0,3.195,3.1967,3.2005,3.2046,3.2167,3.2385,3.2431,3.2546,3.259,3.2732,3.2746,3.307,3.3073,3.3088,3.3107,3.3189,0,0,0,3.1887,3.2019,3.2005,3.2165,3.2164,3.2394,3.2429,3.2603,3.2727,3.2739,3.3072,3.3074,3.3087,3.3104,3.3185,3.3251,3.3274,0,0,3.203,3.2035,3.2133,3.2128,3.2349,3.2354,3.258,3.2735,3.279,3.2977,3.2986,3.3092,3.3107,3.3188,3.3414,3.3432,0,0,0,3.2163,3.2233,3.2301,3.2416,3.2537,3.2644,3.2769,3.2827,3.2988,3.2876,3.3145,3.3155,3.3205,3.3238,3.3253,3.3299,3.3087,3.3087,3.3087,3.2302,3.2363,3.2529,3.2625,3.2736,3.2864,3.296,3.306,3.309,3.3152,3.3209,3.3338,3.3376,3.3387,3.3434,3.3247,3.3247,3.3247,3.3247,3.2517,3.2626,3.2661,3.2835,3.2899,3.3046,3.3174,3.319,3.3336,3.3301,3.3348,3.3305,3.3405,3.3449,3.325,3.3249,3.3249,3.3249,3.3249,3.2616,3.2679,3.2746,3.2918,3.3045,3.3137,3.3276,3.3329,3.3381,3.3427,3.3493,3.3493,3.35,3.3454,3.3455,3.3455,3.3456,3.3456,3.3456,3.2693,3.2767,3.2878,3.3016,3.3097,3.3211,3.3339,3.3421,3.3525,3.3553,3.3554,3.3578,3.3403,3.3358,3.3464,3.3462,3.3461,3.3461,3.346,3.289,3.2853,3.3023,3.3104,3.3272,3.3394,3.346,3.3621,3.3696,3.3763,3.3777,3.3638,3.3648,3.3636,3.36,3.3762,3.3762,3.3762,3.3762,3.2974,3.2983,3.317,3.3295,3.3425,3.3501,3.3692,3.3793,3.3893,3.3943,3.3927,3.3882,3.3868,3.3887,3.387,3.3837,3.4056,3.4056,3.4057,3.3099,3.3124,3.3276,3.3371,3.3506,3.3621,3.3802,3.3946,3.4051,3.407,3.3984,3.3971,3.3901,3.3874,3.3892,3.3864,3.3805,0,0]}]]